"TOA5","AWS1","CR1000","7964","CR1000.Std.14","CPU:AWS1_114.CR1","64363","TBL110"
"TIMESTAMP","RECORD","Wind_spd_WVc(1)","Wind_spd_WVc(2)","Air_Temp_Avg","Humidity_Avg","SW_upper_Wm2_Avg","Rain_Tot","Press_Avg","Issui_Tot","Depth_cm","SR50A_Raw","Quality","Ground_Temp_Avg(1)","Ground_Temp_Avg(2)","SW_lower_Wm2_Avg","Albedo_Avg","SWC_per(1)","SWC_per(2)","Period(1)","Period(2)"
"TS","RN","","","","","","","","","","","","","","","","","","",""
"","","WVc","WVc","Avg","Avg","Avg","Tot","Avg","Tot","Smp","Smp","Smp","Avg","Avg","Avg","Avg","Smp","Smp","Smp","Smp"
"2018-04-27 00:00:00",338029,0.015,275.9,7.191,74.53,0,0,864.6832,0,-2.421,3.166,278,10.62,9.53,0.8188207,0,51.88,60.03,33.76,35.69
"2018-04-27 00:10:00",338030,0.022,102.9,6.114,81.1,0,0,864.7467,0,-2.503,3.17,257,10.51,9.54,0,0,51.88,59.97,33.76,35.67
"2018-04-27 00:20:00",338031,0.101,160.8,5.955,82.2,0,0,864.9174,0,-2.028,3.168,264,10.54,9.55,0,0,51.88,60.03,33.76,35.69
"2018-04-27 00:30:00",338032,0.384,158.2,5.551,85.8,0,0,864.791,0,-2.003,3.168,265,10.46,9.55,0,0,51.88,59.97,33.76,35.67
"2018-04-27 00:40:00",338033,0.48,156.2,5.993,83.6,0,0,864.7193,0,-2.371,3.166,236,10.45,9.55,0.5648346,0,51.88,59.97,33.76,35.67
"2018-04-27 00:50:00",338034,0.418,134.7,6.879,77.04,0,0,864.5423,0,-2.338,3.162,239,10.43,9.54,0.9363366,0,51.88,59.97,33.76,35.67
"2018-04-27 01:00:00",338035,0.301,145.4,7.62,73.31,0,0,864.4643,0,-2.125,3.156,261,10.37,9.53,1.000781,0,51.88,59.97,33.76,35.67
"2018-04-27 01:10:00",338036,0.105,342.8,8.14,71.66,0.3223934,0,864.4601,0,-2.119,3.154,268,10.37,9.51,1.038689,0.927,51.88,59.97,33.76,35.67
"2018-04-27 01:20:00",338037,0.192,119.2,8.21,73.58,0.2123079,0,864.2811,0,-2.427,3.158,249,10.31,9.51,0.716468,0.964,51.88,59.97,33.76,35.67
"2018-04-27 01:30:00",338038,0.305,33.09,7.921,76.6,0,0,863.9587,0,-2.23,3.158,264,10.26,9.51,0.01137251,0,51.88,59.97,33.76,35.67
"2018-04-27 01:40:00",338039,0.087,2.685,7.597,80,0,0,863.8828,0,-3.018,3.167,215,10.29,9.51,0,0,51.88,59.97,33.76,35.67
"2018-04-27 01:50:00",338040,0.095,271.3,7.284,82.7,0,0,863.9587,0,-3.151,3.171,215,10.19,9.53,0,0,51.88,59.97,33.76,35.67
"2018-04-27 02:00:00",338041,0.048,191.8,6.772,85.9,0,0,863.9587,0,-2.803,3.171,224,10.16,9.53,0,0,51.88,59.91,33.76,35.66
"2018-04-27 02:10:00",338042,0.096,191.3,6.229,88.7,0,0,864.0135,0,-2.829,3.172,204,10.2,9.49,0,0,51.88,59.97,33.76,35.67
"2018-04-27 02:20:00",338043,0.091,147.4,6.238,92.1,0,0,863.8069,0,-3.236,3.177,197,10.16,9.49,0,0,51.88,59.91,33.76,35.66
"2018-04-27 02:30:00",338044,0.045,100.1,5.788,94.9,0,0,863.6848,0,-2.684,3.174,206,10.13,9.48,0,0,51.94,59.91,33.77,35.66
"2018-04-27 02:40:00",338045,0.202,112.8,5.977,93.8,0,0,863.6932,0,-2.631,3.172,203,10.09,9.46,0.2843127,0,51.88,59.91,33.76,35.66
"2018-04-27 02:50:00",338046,0.111,147.4,5.986,92.7,0,0,863.8681,0,-2.859,3.175,222,10.03,9.43,0.1478426,0,51.94,59.91,33.77,35.66
"2018-04-27 03:00:00",338047,0.137,164.3,5.562,97,0,0,863.9461,0,-2.89,3.179,209,10.02,9.43,0,0,51.88,59.85,33.76,35.64
"2018-04-27 03:10:00",338048,0.331,169.5,5.267,100,0,0,863.8196,0,-2.839,3.178,226,10.03,9.42,0,0,51.94,59.91,33.77,35.66
"2018-04-27 03:20:00",338049,0.047,178.4,5.519,100,0,0,863.9587,0,-3.162,3.178,222,9.98,9.44,0.276731,0,51.88,59.91,33.76,35.66
"2018-04-27 03:30:00",338050,0.18,142.1,5.552,98.4,0,0,863.965,0,-3.622,3.186,209,9.95,9.46,0.231241,0,51.88,59.85,33.76,35.64
"2018-04-27 03:40:00",338051,0.148,115.3,5.622,99.9,0,0,863.9355,0,-3.972,3.184,202,9.9,9.47,0.5383083,0,51.94,59.85,33.77,35.64
"2018-04-27 03:50:00",338052,0.014,115.3,6.524,93.3,0,0,863.9587,0,-4.351,3.184,204,9.86,9.47,1.372334,0,51.88,59.85,33.76,35.64
"2018-04-27 04:00:00",338053,0.333,175.5,6.492,90,0,0,863.9587,0,-4.408,3.19,196,9.88,9.48,0.8112832,0,51.94,59.85,33.77,35.64
"2018-04-27 04:10:00",338054,0.084,190.2,5.891,97.8,0,0,863.9587,0,-4.157,3.187,197,9.86,9.47,0,0,51.94,59.85,33.77,35.64
"2018-04-27 04:20:00",338055,0.176,274.4,6.12,97.4,0,0,863.9587,0,-3.805,3.182,212,9.83,9.42,0.3980713,0,51.88,59.85,33.76,35.64
"2018-04-27 04:30:00",338056,0.221,153.3,5.922,96,0,0,863.8175,0,-3.424,3.182,216,9.79,9.37,0.1137348,0,51.94,59.85,33.77,35.64
"2018-04-27 04:40:00",338057,0.24,166.2,5.712,100,0,0,863.4846,0,-3.55,3.183,204,9.75,9.35,0.1175203,0,51.88,59.85,33.76,35.64
"2018-04-27 04:50:00",338058,0.195,192.3,6.011,99.9,0,0,863.5858,0,-3.34,3.175,206,9.7,9.35,0.5876114,0,51.88,59.85,33.76,35.64
"2018-04-27 05:00:00",338059,0.147,145,6.67,91.2,0,0,863.7059,0,-3.442,3.179,202,9.7,9.35,0.8605559,0,51.88,59.85,33.76,35.64
"2018-04-27 05:10:00",338060,0.324,162.7,5.802,98.1,0.8571079,0,863.6868,0,-3.14,3.178,211,9.66,9.34,0.144054,0.063,51.88,59.79,33.76,35.63
"2018-04-27 05:20:00",338061,0.152,178.1,5.918,100,8.178095,0,863.6364,0,-3.343,3.178,202,9.61,9.35,1.74006,0.213,51.94,59.85,33.77,35.64
"2018-04-27 05:30:00",338062,0.039,142.1,6.497,94.5,19.83615,0,863.6047,0,-2.86,3.169,223,9.61,9.35,4.003344,0.202,51.88,59.79,33.76,35.63
"2018-04-27 05:40:00",338063,0.069,160.2,6.896,87.9,28.45099,0,863.4825,0,-2.832,3.169,228,9.62,9.37,4.970093,0.177,51.88,59.79,33.76,35.63
"2018-04-27 05:50:00",338064,0.143,189.9,7.226,84.4,38.03965,0,863.7037,0,-3.079,3.171,238,9.49,9.36,6.209582,0.164,51.88,59.79,33.76,35.63
"2018-04-27 06:00:00",338065,0.278,169.7,6.626,91.6,59.56871,0,863.6215,0,-2.724,3.168,261,9.49,9.36,8.726597,0.145,51.88,59.79,33.76,35.63
"2018-04-27 06:10:00",338066,0.272,148.8,6.916,88.8,103.6971,0,863.493,0,-2.593,3.165,255,9.51,9.34,14.92837,0.144,51.88,59.79,33.76,35.63
"2018-04-27 06:20:00",338067,0.122,103.2,7.695,79.66,120.8426,0,863.4531,0,-2.701,3.159,250,9.51,9.34,17.7146,0.147,51.94,59.79,33.77,35.63
"2018-04-27 06:30:00",338068,0.015,67.78,8.77,71.65,128.9378,0,863.4531,0,-3.299,3.161,224,9.51,9.34,21.14151,0.164,51.94,59.79,33.77,35.63
"2018-04-27 06:40:00",338069,0.523,88.2,9.18,70.26,149.9366,0,863.4003,0,-2.48,3.151,267,9.5,9.33,24.02254,0.161,51.88,59.79,33.76,35.63
"2018-04-27 06:50:00",338070,0.335,103.9,9.42,68,143.4219,0,863.3324,0,-3.647,3.162,220,9.45,9.31,21.33105,0.149,51.88,59.85,33.76,35.64
"2018-04-27 07:00:00",338071,0.198,57.33,9.59,67.93,153.192,0,863.3834,0,-5.602,3.18,197,9.4,9.29,23.06346,0.151,51.88,59.85,33.76,35.64
"2018-04-27 07:10:00",338072,0.315,42.19,9.73,66.51,178.5864,0,863.366,0,-4.69,3.172,193,9.39,9.29,28.06737,0.157,51.88,59.79,33.76,35.63
"2018-04-27 07:20:00",338073,0.283,354.6,9.59,68.52,217.0417,0,863.3619,0,-4.104,3.166,188,9.4,9.29,32.35102,0.149,51.88,59.73,33.76,35.62
"2018-04-27 07:30:00",338074,0.318,329.2,9.55,70.72,197.065,0,863.3641,0,-3.904,3.165,194,9.38,9.29,29.57612,0.15,51.88,59.79,33.76,35.63
"2018-04-27 07:40:00",338075,0.417,298.9,9.21,71.49,212.9955,0,863.3231,0,-4.955,3.176,185,9.38,9.27,32.17476,0.151,51.88,59.79,33.76,35.63
"2018-04-27 07:50:00",338076,0.426,324,9.35,72.5,273.9177,0,863.2027,0,-3.942,3.165,189,9.35,9.21,38.44357,0.142,51.88,59.73,33.76,35.62
"2018-04-27 08:00:00",338077,0.4,42.67,9.78,70.57,367.832,0,863.1458,0,-3.334,3.156,181,9.31,9.15,48.08107,0.131,51.88,59.73,33.76,35.62
"2018-04-27 08:10:00",338078,0.435,27.6,10.03,68.01,423.1405,0,863.1331,0,-3.324,3.154,188,9.3,9.13,59.34563,0.14,51.94,59.73,33.77,35.62
"2018-04-27 08:20:00",338079,0.279,87.6,10.27,63.73,353.7243,0,863.0046,0,-3.295,3.153,187,9.3,9.12,52.1066,0.147,51.94,59.73,33.77,35.62
"2018-04-27 08:30:00",338080,0.33,127.9,10.7,59.85,386.5995,0,862.9814,0,-3.462,3.152,194,9.32,9.12,57.32454,0.148,51.88,59.73,33.76,35.62
"2018-04-27 08:40:00",338081,0.339,94.3,11.05,61.97,350.2948,0,862.853,0,-3.45,3.149,213,9.31,9.12,57.31688,0.163,51.94,59.73,33.77,35.62
"2018-04-27 08:50:00",338082,0.293,130.1,11.22,59.96,355.6359,0,862.8404,0,-3.401,3.149,221,9.29,9.12,56.10799,0.158,51.88,59.73,33.76,35.62
"2018-04-27 09:00:00",338083,0.544,68.71,11.08,60.14,365.7918,0,862.6255,0,-3.059,3.149,216,9.3,9.12,53.27721,0.146,51.88,59.73,33.76,35.62
"2018-04-27 09:10:00",338084,0.627,90.7,10.74,60.8,376.8673,0,862.6045,0,-3.36,3.151,197,9.3,9.1,56.2141,0.149,51.94,59.73,33.77,35.62
"2018-04-27 09:20:00",338085,0.365,93.2,11.03,58.99,404.3951,0,862.535,0,-3.658,3.152,202,9.37,9.08,60.22344,0.149,51.88,59.73,33.76,35.62
"2018-04-27 09:30:00",338086,0.519,348.9,11.28,59.61,426.2357,0,862.5076,0,-3.94,3.155,209,9.37,9.02,63.77803,0.15,51.88,59.73,33.76,35.62
"2018-04-27 09:40:00",338087,0.665,280.1,10.67,60.88,416.4964,0,862.5076,0,-3.114,3.151,241,9.33,9.01,62.5957,0.15,51.88,59.73,33.76,35.62
"2018-04-27 09:50:00",338088,0.357,322.3,11.01,61.2,449.4794,0,862.3517,0,-3.654,3.151,226,9.33,9.03,68.1739,0.152,51.88,59.73,33.76,35.62
"2018-04-27 10:00:00",338089,0.496,289.8,11.15,59.32,412.3814,0,862.3517,0,-3.719,3.155,216,9.43,9.03,62.24706,0.151,51.88,59.73,33.76,35.62
"2018-04-27 10:10:00",338090,0.465,291.8,10.71,59.67,431.8481,0,862.3517,0,-2.851,3.146,230,9.46,9.03,66.08965,0.153,51.82,59.73,33.75,35.62
"2018-04-27 10:20:00",338091,0.452,283.9,11.61,58.86,450.462,0,862.3475,0,-4.471,3.159,187,9.4,9.01,69.5533,0.154,51.88,59.73,33.76,35.62
"2018-04-27 10:30:00",338092,0.491,264.3,11.34,61.02,425.0094,0,862.2422,0,-2.76,3.142,203,9.53,8.97,64.13425,0.151,51.88,59.73,33.76,35.62
"2018-04-27 10:40:00",338093,0.291,299.7,11.85,61,430.9913,0,862.1308,0,-4.762,3.158,180,9.52,8.95,65.62733,0.152,51.88,59.73,33.76,35.62
"2018-04-27 10:50:00",338094,0.412,356.3,11.83,60.95,298.8629,0,862.0411,0,-4.369,3.158,187,9.53,8.94,42.95449,0.143,51.88,59.73,33.76,35.62
"2018-04-27 11:00:00",338095,0.336,338.5,11.47,63.03,353.8516,0,861.8581,0,-3.809,3.153,184,9.62,8.9,52.18203,0.147,51.88,59.67,33.76,35.6
"2018-04-27 11:10:00",338096,0.381,93.1,11.53,63.19,368.4565,0,861.8459,0,-3.017,3.145,215,9.58,8.89,55.24019,0.15,51.88,59.73,33.76,35.62
"2018-04-27 11:20:00",338097,0.817,341.7,11.18,64.48,407.7397,0,861.7008,0,-3.642,3.154,199,9.61,8.92,61.94769,0.152,51.88,59.67,33.76,35.6
"2018-04-27 11:30:00",338098,0.466,328.3,11.13,64.96,407.1148,0,861.3512,0,-4.352,3.16,195,9.69,8.94,62.33801,0.153,51.88,59.67,33.76,35.6
"2018-04-27 11:40:00",338099,0.524,326.9,11.15,64.96,434.8037,0,861.3407,0,-3.516,3.153,227,9.67,8.94,67.08251,0.154,51.82,59.67,33.75,35.6
"2018-04-27 11:50:00",338100,0.652,302.1,10.99,65.42,413.3168,0,861.3364,0,-3.336,3.151,240,9.79,8.94,64.00919,0.155,51.82,59.67,33.75,35.6
"2018-04-27 12:00:00",338101,0.674,325.7,11,65.75,370.6221,0,861.3027,0,-3.43,3.15,219,9.79,8.94,56.91517,0.153,51.82,59.67,33.75,35.6
"2018-04-27 12:10:00",338102,0.431,259.7,11.18,65.86,353.604,0,861.14,0,-2.866,3.144,223,9.77,8.94,54.41028,0.153,51.82,59.67,33.75,35.6
"2018-04-27 12:20:00",338103,0.412,268,11.58,64.99,349.6973,0,861.0878,0,-3.149,3.147,221,9.87,8.94,53.36058,0.152,51.82,59.73,33.75,35.62
"2018-04-27 12:30:00",338104,0.342,277.7,11.35,64.78,357.8919,0,861.0141,0,-3.255,3.149,226,9.86,8.94,54.25491,0.151,51.82,59.73,33.75,35.62
"2018-04-27 12:40:00",338105,0.356,319.1,11.64,63.95,388.3713,0,860.8351,0,-2.893,3.139,237,9.96,8.94,59.7308,0.154,51.82,59.67,33.75,35.6
"2018-04-27 12:50:00",338106,0.376,270.9,12.38,61.63,618.5878,0,860.8351,0,-3.219,3.141,212,9.93,8.94,99.30122,0.16,51.82,59.67,33.75,35.6
"2018-04-27 13:00:00",338107,0.311,169.6,13.21,59.91,509.4988,0,860.8394,0,-3.063,3.134,219,9.98,8.9,78.79221,0.154,51.82,59.67,33.75,35.6
"2018-04-27 13:10:00",338108,0.518,88.5,12.76,57.52,313.9042,0,860.7804,0,-2.737,3.137,246,10,8.89,44.49304,0.139,51.77,59.67,33.73,35.6
"2018-04-27 13:20:00",338109,0.502,357.1,11.87,57.25,387.3298,0,860.4454,0,-2.43,3.134,200,9.99,8.94,57.99519,0.148,51.82,59.61,33.75,35.59
"2018-04-27 13:30:00",338110,0.643,306.7,12.58,56.47,379.7954,0,860.3193,0,-2.767,3.138,221,10.09,8.94,57.1577,0.149,51.77,59.67,33.73,35.6
"2018-04-27 13:40:00",338111,0.378,324.9,12.56,55.61,578.4911,0,860.1492,0,-2.698,3.134,227,10.08,8.93,90.27074,0.155,51.77,59.67,33.73,35.6
"2018-04-27 13:50:00",338112,0.744,282.7,12.86,52.72,651.7909,0,859.9594,0,-2.986,3.138,196,10.16,8.87,98.21362,0.151,51.77,59.67,33.73,35.6
"2018-04-27 14:00:00",338113,0.486,302.3,13.23,50.87,575.6652,0,860.0795,0,-2.599,3.129,242,10.17,8.86,81.78216,0.142,51.77,59.67,33.73,35.6
"2018-04-27 14:10:00",338114,0.75,267.7,13.21,49.92,713.4728,0,860.0592,0,-3.083,3.138,221,10.22,8.86,95.686,0.134,51.82,59.67,33.75,35.6
"2018-04-27 14:20:00",338115,0.495,270.2,12.76,49.92,560.2112,0,860.0062,0,-2.445,3.132,204,10.24,8.86,72.82747,0.13,51.77,59.67,33.73,35.6
"2018-04-27 14:30:00",338116,0.252,232.4,13.16,49.92,442.1534,0,859.7859,0,-2.442,3.127,206,10.23,8.86,57.46087,0.131,51.71,59.67,33.72,35.6
"2018-04-27 14:40:00",338117,0.391,77.23,13.5,43.84,615.5262,0,859.7832,0,-3.006,3.133,189,10.33,8.85,71.36805,0.118,51.71,59.67,33.72,35.6
"2018-04-27 14:50:00",338118,0.549,15.06,13.34,41.47,492.8755,0,859.6785,0,-2.681,3.131,198,10.38,8.83,55.2774,0.114,51.71,59.67,33.72,35.6
"2018-04-27 15:00:00",338119,0.574,101.8,13.5,41.06,483.2253,0,859.535,0,-3.229,3.138,205,10.38,8.82,53.37536,0.115,51.71,59.67,33.72,35.6
"2018-04-27 15:10:00",338120,0.433,54.34,13.02,40.63,306.813,0,859.5223,0,-2.951,3.136,198,10.46,8.83,38.86167,0.126,51.71,59.61,33.72,35.59
"2018-04-27 15:20:00",338121,0.463,291.3,13.27,44.23,326.0127,0,859.6981,0,-3.193,3.136,196,10.52,8.85,38.91854,0.122,51.71,59.61,33.72,35.59
"2018-04-27 15:30:00",338122,0.255,156.3,13.41,47.91,230.461,0,859.7761,0,-2.91,3.133,213,10.57,8.83,33.44984,0.143,51.77,59.61,33.73,35.59
"2018-04-27 15:40:00",338123,0.428,359.1,13.24,47.01,217.9129,0,859.6325,0,-3.155,3.138,205,10.59,8.85,31.53253,0.145,51.71,59.61,33.72,35.59
"2018-04-27 15:50:00",338124,0.444,275.1,12.67,47.45,209.5661,0,859.5686,0,-3.034,3.138,195,10.59,8.86,30.08887,0.144,51.71,59.61,33.72,35.59
"2018-04-27 16:00:00",338125,0.223,266.4,12.81,50.44,206.5166,0,859.5829,0,-3.112,3.139,200,10.7,8.86,29.86914,0.145,51.71,59.61,33.72,35.59
"2018-04-27 16:10:00",338126,0.252,145.7,12.79,49.46,141.9736,0,859.5245,0,-3.005,3.137,194,10.68,8.89,19.56161,0.137,51.66,59.61,33.7,35.59
"2018-04-27 16:20:00",338127,0.188,264.1,12.64,51.89,89.60654,0,859.515,0,-2.971,3.14,192,10.75,8.92,10.87219,0.12,51.71,59.61,33.72,35.59
"2018-04-27 16:30:00",338128,0.188,330.9,12.18,54.27,67.49869,0,859.571,0,-2.639,3.137,193,10.82,8.93,8.24983,0.122,51.66,59.61,33.7,35.59
"2018-04-27 16:40:00",338129,0.088,356.9,12.13,57.77,64.50774,0,859.5714,0,-3.004,3.142,197,10.8,8.94,8.374886,0.129,51.66,59.61,33.7,35.59
"2018-04-27 16:50:00",338130,0.038,283,11.85,61.67,71.80235,0,859.5925,0,-3.441,3.147,216,10.78,8.95,9.56859,0.133,51.6,59.61,33.69,35.59
"2018-04-27 17:00:00",338131,0.061,308.5,11.62,63.94,61.68973,0,859.6219,0,-2.177,3.137,300,10.9,8.94,8.105828,0.131,51.66,59.56,33.7,35.58
"2018-04-27 17:10:00",338132,0.094,242.4,11.39,67.33,48.44468,0,859.78,0,-3.356,3.15,245,10.94,8.95,6.218637,0.128,51.6,59.56,33.69,35.58
"2018-04-27 17:20:00",338133,0.059,156.5,10.93,69.78,28.45132,0,859.8242,0,-2.854,3.147,277,10.94,8.98,4.001755,0.141,51.66,59.56,33.7,35.58
"2018-04-27 17:30:00",338134,0.024,272.5,10.66,70.79,12.72626,0,859.8242,0,-3.829,3.158,201,10.94,9,1.341498,0.099,51.6,59.56,33.69,35.58
"2018-04-27 17:40:00",338135,0.347,172.9,10.49,71.77,6.771879,0,859.7209,0,-3.425,3.155,208,10.94,9.02,0.5343253,0.073,51.66,59.56,33.7,35.58
"2018-04-27 17:50:00",338136,0.602,149.3,10.35,74.07,1.811861,0,859.7842,0,-4.267,3.164,193,10.94,9.03,0.2917947,0.249,51.6,59.56,33.69,35.58
"2018-04-27 18:00:00",338137,0.27,300.7,10.08,69.5,0.0707451,0,859.8137,0,-4.038,3.162,186,10.94,9.03,0.7579082,0.153,51.6,59.56,33.69,35.58
"2018-04-27 18:10:00",338138,0.127,264.5,9.36,80.7,4.43729,0,860.1927,0,-3.705,3.166,176,10.93,9.04,1.640871,0.3,51.6,59.56,33.69,35.58
"2018-04-27 18:20:00",338139,0.016,130.4,8.67,98.5,11.55896,0,860.3297,0,-3.662,3.168,199,10.94,9.06,2.690574,0.235,51.6,59.56,33.69,35.58
"2018-04-27 18:30:00",338140,0.782,124.2,7.966,98.3,10.02222,0,860.3318,0,-3.624,3.173,197,10.94,9.11,2.175197,0.219,51.6,59.56,33.69,35.58
"2018-04-27 18:40:00",338141,0.275,120.4,7.403,97.7,0.9314772,0,860.3297,0,-3.777,3.175,188,10.91,9.13,0.9094898,0.334,51.6,59.5,33.69,35.56
"2018-04-27 18:50:00",338142,0.148,180.4,7.378,97.1,0,0,860.3276,0,-4.135,3.179,195,10.87,9.14,1.140659,0,51.6,59.5,33.69,35.56
"2018-04-27 19:00:00",338143,0.198,178.6,7.239,100,0,0,860.3907,0,-3.935,3.178,194,10.91,9.16,1.170997,0,51.55,59.5,33.68,35.56
"2018-04-27 19:10:00",338144,0.053,161.6,7.067,100,0,0,860.6308,0,-3.972,3.18,203,10.88,9.16,1.140704,0,51.55,59.5,33.68,35.56
"2018-04-27 19:20:00",338145,0.106,74.39,7.015,100,0,0,860.831,0,-3.757,3.178,197,10.88,9.17,1.337865,0,51.6,59.5,33.69,35.56
"2018-04-27 19:30:00",338146,0.216,37.9,7.403,93.1,0,0,860.8351,0,-4.263,3.176,184,10.87,9.22,2.077099,0,51.55,59.5,33.68,35.56
"2018-04-27 19:40:00",338147,0.757,288.2,8.33,77.39,0,0,860.9678,0,-3.782,3.168,198,10.9,9.27,2.812629,0,51.55,59.5,33.68,35.56
"2018-04-27 19:50:00",338148,0.364,144.3,7.787,84.9,0,0.5,861.0879,0,-3.271,3.17,183,10.86,9.28,1.353294,0,51.55,59.5,33.68,35.56
"2018-04-27 20:00:00",338149,0.905,289.8,7.916,79.63,0,0,861.347,0,-3.768,3.17,196,10.85,9.29,1.891615,0,51.55,59.44,33.68,35.55
"2018-04-27 20:10:00",338150,0.636,304,8.29,72.84,0,0,861.585,0,-4.047,3.173,193,10.8,9.3,2.138028,0,51.55,59.44,33.68,35.55
"2018-04-27 20:20:00",338151,0.487,298,7.996,74.92,0,0,861.8061,0,-3.98,3.176,184,10.85,9.32,1.690712,0,51.55,59.44,33.68,35.55
"2018-04-27 20:30:00",338152,0.832,250.4,7.683,76.77,0,0,861.8504,0,-3.265,3.167,187,10.8,9.34,1.326793,0,51.55,59.44,33.68,35.55
"2018-04-27 20:40:00",338153,0.885,296,8.14,68.9,0,0,861.8617,0,-4.025,3.174,197,10.75,9.34,2.050843,0,51.55,59.44,33.68,35.55
"2018-04-27 20:50:00",338154,0.689,303.4,8.01,65.35,0,0,861.8973,0,-2.963,3.165,194,10.7,9.33,1.876464,0,51.55,59.44,33.68,35.55
"2018-04-27 21:00:00",338155,0.73,335.7,7.871,65.48,0,0,862.098,0,-3.77,3.171,190,10.67,9.33,1.910581,0,51.49,59.44,33.66,35.55
"2018-04-27 21:10:00",338156,0.588,325.9,7.834,68.77,0,0,862.2458,0,-3.597,3.171,202,10.66,9.33,1.554243,0,51.55,59.44,33.68,35.55
"2018-04-27 21:20:00",338157,0.762,286.4,7.781,67.51,0,0,862.4127,0,-3.822,3.172,189,10.63,9.32,1.614896,0,51.55,59.44,33.68,35.55
"2018-04-27 21:30:00",338158,0.499,303.2,7.227,69.7,0,0,862.4266,0,-3.728,3.174,195,10.57,9.32,0.9514999,0,51.55,59.44,33.68,35.55
"2018-04-27 21:40:00",338159,0.3,307.9,7.279,66.67,0,0,862.4376,0,-3.732,3.176,196,10.51,9.32,1.436727,0,51.55,59.44,33.68,35.55
"2018-04-27 21:50:00",338160,0.18,178.1,6.39,75.27,0,0,862.4407,0,-3.973,3.188,197,10.51,9.33,0.5648346,0,51.55,59.44,33.68,35.55
"2018-04-27 22:00:00",338161,0.269,176.2,6.177,73.5,0,0,862.4308,0,-4.318,3.184,196,10.44,9.34,1.364701,0,51.55,59.44,33.68,35.55
"2018-04-27 22:10:00",338162,0.377,224.7,6.686,69.12,0,0,862.4389,0,-3.225,3.171,195,10.46,9.34,1.99398,0,51.55,59.44,33.68,35.55
"2018-04-27 22:20:00",338163,0.402,356.8,7.148,64.92,0,0,862.441,0,-3.634,3.177,196,10.39,9.34,2.066006,0,51.55,59.38,33.68,35.54
"2018-04-27 22:30:00",338164,0.428,268,7.118,61.69,0,0,862.4415,0,-4.316,3.183,195,10.38,9.34,2.001562,0,51.49,59.44,33.66,35.55
"2018-04-27 22:40:00",338165,0.23,99.6,6.114,69.33,0,0,862.5007,0,-3.444,3.183,197,10.31,9.34,0.6975139,0,51.49,59.44,33.66,35.55
"2018-04-27 22:50:00",338166,0.448,180.6,5.618,71.39,0,0,862.6945,0,-3.872,3.187,191,10.29,9.34,1.038689,0,51.49,59.44,33.66,35.55
"2018-04-27 23:00:00",338167,0.517,169.5,5.86,67.08,0,0,862.6819,0,-3.791,3.182,182,10.26,9.34,1.694504,0,51.55,59.44,33.68,35.55
"2018-04-27 23:10:00",338168,0.497,186.1,5.975,61.61,0,0,862.6335,0,-4.117,3.183,195,10.18,9.34,2.047052,0,51.55,59.38,33.68,35.54
"2018-04-27 23:20:00",338169,0.436,172.3,6.531,55.02,0,0,862.6945,0,-3.54,3.18,192,10.22,9.34,2.623259,0,51.55,59.38,33.68,35.54
"2018-04-27 23:30:00",338170,0.439,198.8,6.345,53.66,0,0,862.6945,0,-3.561,3.178,194,10.16,9.34,2.138032,0,51.55,59.38,33.68,35.54
"2018-04-27 23:40:00",338171,0.547,220.7,6.695,51.15,0,0,862.6945,0,-4.146,3.186,187,10.12,9.34,1.956072,0,51.55,59.38,33.68,35.54
"2018-04-27 23:50:00",338172,0.371,179,5.989,56.06,0,0,862.9158,0,-3.571,3.185,195,10.05,9.34,1.042481,0,51.49,59.38,33.66,35.54
